www.pogodaiklimat.ru

Погода и климат >> Архив погоды >> Россия >> Забайкальский край >> Кыра


АРХИВ ПОГОДЫ в Кыре

Время (UTC), дата Ветер
(напр.,м/с)
 
Видим.   Явления Облачность Т
(С)
Тd
(С)
f
(%)
Тe
(С)
Тes
(С)
Комфортность P
(гПа)
Po
(гПа)
Тmin
(С)
Tmax
(С)
R
(мм)
R24
(мм)
S
(см)
15 11.07 штиль 0 н/о {гроза} 9/4 1000 м
[Cb cap Ac trans]
+18.5 +12.9 70 +19 +19 1007.3 907.2
18 11.07 Ю 1 н/о 9/4 1000 м
[Cb cap Ac trans]
+17.4 +12.8 74 +18 +18 1008.0 907.5
21 11.07 З 1 2000 м гроза, ливневой дождь 10/6 1000 м
[Cb cap Ac und]
+14.9 +13.5 91 +15 +15 1011.0 909.4
00 12.07 ЮЗ 2 50 км {гроза, ливн. осадки} 9/3 1000 м
[Cb cap Ac trans Ci sp]
+15.8 +13.4 86 +16 +18 1010.2 908.9 +14.9 18
03 12.07 ЮВ 1 50 км 9/6 1000 м
[Cb cap Ac trans]
+20.7 +14.6 68 +25 +29 комфорт 1008.3 908.9
06 12.07 ЮВ 1 50 км {ливн. осадки} 8/4 1000 м
[Cb cap Ac trans]
+23.7 +13.9 54 +26 +33 жарко 1005.0 906.8
09 12.07 СВ 1 50 км 8/6 1000 м
[Cb cap Ac trans]
+22.7 +13.8 57 +26 +28 жарко 1004.6 906.1
12 12.07 штиль 0 50 км {ливн. осадки} 3/0
[Ci fib]
+22.2 +15.3 65 +26 +26 душно 1004.9 906.4 +24.8 0.6
15 12.07 С 1 н/о 3/0
[Ci fib]
+15.9 +13.7 87 +17 +17 1008.5 907.5
18 12.07 штиль 0 н/о ясно +13.3 +11.9 91 +13 +13 1010.3 908.1
21 12.07 штиль 0 50 км ясно +11.7 +10.4 92 +11 +11 1010.9 908.1
00 13.07 З 2 4000 м дымка {туман} 3/3 1000 м
[Sc]
+14.2 +12.8 91 +14 +18 1010.2 908.4 +11.6
03 13.07 штиль 0 50 км 4/3 1000 м
[Cu med, cong Ci fib]
+23.2 +15.9 64 +28 +42 душно 1005.7 907.3
06 13.07 ЮЗ 1 50 км 8/4 1000 м
[Cu med, cong Ac trans]
+28.0 +13.2 40 +30 +36 жарко 1002.1 905.5
09 13.07 З 2 50 км 8/3 1000 м
[Cb cap Ac trans Ci fib]
+29.1 +11.8 34 +30 +33 жарко 999.8 903.7
12 13.07 С 1
{10}
50 км гроза без осадков 8/5 1000 м
[Cb cap Ac trans]
+24.1 +11.6 45 +26 +26 жарко 1002.3 904.4 +29.7
15 13.07 ЮВ 1 н/о {гроза} 1/0
[Ac lent]
+17.7 +13.1 74 +19 +19 1006.3 906.1
18 13.07 штиль 0 н/о {гроза} ясно +14.2 +12.2 88 +14 +14 1007.8 906.2
21 13.07 штиль 0 50 км ясно +12.5 +10.8 89 +12 +12 1008.2 905.9
00 14.07 З 1 50 км 3/0
[Ci fib]
+17.6 +13.2 75 +19 +25 1006.0 905.8 +12.3
03 14.07 ЮВ 3 50 км 10/3 1000 м
[Cu hum Cs]
+24.2 +14.2 54 +27 +34 жарко 1002.9 905.1
06 14.07 В 2 50 км 8/4 1000 м
[Cu med, cong Ci sp]
+27.0 +14.4 46 +29 +37 жарко 1000.0 903.3
09 14.07 штиль 0 4000 м гроза, ливневой дождь 9/4 1000 м
[Cb cap Ac trans]
+22.6 +17.6 73 +28 +30 душно 1001.8 903.7
12 14.07 З 1 50 км {гроза, ливн. осадки} 8/4 1000 м
[Sc diur, vesp Ac lent Ci sp]
+21.7 +16.9 74 +26 +26 душно 1001.2 902.9 +27.6 0.6
15 14.07 штиль 0 н/о 3/0
[Ac trans]
+16.8 +14.0 84 +17 +17 1003.8 903.5
18 14.07 С 1 н/о 4/0
[Ac trans]
+14.3 +12.7 90 +15 +15 1004.6 903.4
21 14.07 штиль 0 500 м туман ?/? +14.6 +13.3 92 +14 +14 1004.5 903.4
00 15.07 штиль 0 500 м туман ?/? +15.5 +14.3 93 +15 +15 1004.2 903.5 +14.0
03 15.07 штиль 0 50 км 6/3 1000 м
[Cu med, cong Ci]
+22.9 +16.6 68 +28 +41 душно 1000.3 902.4
06 15.07 В 2 50 км {туман} 6/4 1000 м
[Cb cap Ci sp]
+29.2 +17.5 49 +33 +42 очень
душно
996.7 901.2
09 15.07 С 6-10
{10}
50 км в посл. час гроза 8/3 1000 м
[Cb cap Ac trans Cc]
+26.6 +18.3 60 +31 +32 душно 997.8 901.4
12 15.07 СВ 2
{10}
50 км {гроза} 9/3 1000 м
[Cb cap Ac trans Ci fib]
+23.7 +17.2 67 +28 +28 душно 1000.0 902.4 +30.3
15 15.07 Ю 1
{11}
н/о гроза, ливневой дождь 9/4 1000 м
[Cb cap Ac trans]
+19.6 +12.9 65 +22 +22 комфорт 1003.1 903.8
18 15.07 ЮЗ 2
{10}
4000 м гроза, ливневой дождь 9/4 1000 м
[Cb cap Ac trans]
+17.6 +14.9 84 +18 +18 1006.6 906.3
21 15.07 Ю 1 50 км в посл. час гроза {ливн. осадки} 9/4 1000 м
[Cb cap Ac trans]
+15.9 +13.8 87 +17 +17 1006.1 905.3
00 16.07 З 2 50 км {гроза, ливн. осадки} 8/0
[Ac trans Ci sp]
+18.9 +15.0 78 +21 +24 комфорт 1006.2 906.4 +15.9 12
03 16.07 В 2 50 км 8/4 1000 м
[Cb cap Ac trans]
+24.0 +16.3 62 +27 +33 жарко 1004.3 906.3
06 16.07 В 2 50 км 8/6 1000 м
[Cb cap Ac trans]
+25.6 +16.6 58 +29 +34 душно 1003.0 905.7
09 16.07 В 3 50 км 8/4 1000 м
[Cb cap Ac trans]
+26.4 +16.2 53 +30 +31 душно 1002.0 905.0
12 16.07 В 1 50 км 9/4 1000 м
[Cb cap Ac trans Cc]
+23.1 +16.9 68 +28 +28 душно 1003.9 905.8 +26.8
15 16.07 С 3 н/о 8/4 1000 м
[Cb cap Ac trans Ci fib]
+19.6 +16.6 83 +22 +22 комфорт 1006.1 906.7
18 16.07 С 1 н/о 6/3 1000 м
[Cb cap Ac trans Ci fib]
+18.0 +15.6 86 +19 +19 1006.7 906.6
21 16.07 Ю 1 50 км 6/0
[Ac trans Ci fib]
+15.7 +14.1 90 +16 +16 1007.8 906.8
00 17.07 ЮЗ 2 4000 м дымка 9/3 1000 м
[Sc Ac trans Ci fib]
+18.3 +15.5 84 +19 +21 1007.6 907.5 +15.1
03 17.07 В 1 50 км 9/6 1000 м
[Cb cap Ac trans]
+22.8 +17.0 70 +28 +32 душно 1005.3 906.9
06 17.07 СЗ 1 50 км 8/4 1000 м
[Cb cap Ac trans]
+23.9 +16.7 64 +27 +34 жарко 1003.5 905.7
09 17.07 В 4 50 км 8/6 1000 м
[Cb cap Ci ing]
+24.8 +16.8 61 +28 +30 жарко 1001.4 904.0
12 17.07 З 1 50 км в посл. час гроза {ливн. осадки} 8/4 1000 м
[Cb cap Ac trans]
+17.1 +15.8 92 +18 +18 1005.7 905.5 +26.0 34
15 17.07 СВ 1 н/о 8/0
[Ac trans Cs]
+15.8 +14.6 93 +16 +16 1007.0 906.1
18 17.07 С 1 н/о 9/0
[Ac trans Ci fib]
+15.6 +14.4 93 +16 +16 1006.8 905.9
21 17.07 З 2 50 км 9/4 1000 м
[Sc Ac trans]
+15.8 +14.6 93 +16 +16 1007.0 906.1
00 18.07 З 2 500 м туман ?/? +16.2 +14.4 89 +16 +16 1006.5 905.8 +15.1
03 18.07 ЮВ 1 50 км {туман} 8/3 1000 м
[Cu med, cong Ac trans Ci fib]
+20.6 +16.2 76 +25 +33 комфорт 1004.3 905.3
06 18.07 ЮВ 2 50 км {туман} 8/4 1000 м
[Cu med, cong Ac trans Ci fib]
+26.8 +16.2 52 +30 +36 душно 999.9 903.3
09 18.07 ЮЗ 2 50 км гроза без осадков 9/6 1000 м
[Cb cap Ac trans]
+24.8 +16.1 58 +28 +29 жарко 1000.0 902.7
12 18.07 З 2
{14}
50 км {гроза, ливн. осадки} 10/6 1000 м
[Cb cap Ac und]
+18.8 +15.2 80 +20 +20 1004.1 904.5 +28.5 2

 

Местоположение метеостанции Кыра (Забайкальский край, Россия): широта 49.57 долгота 111.90 высота над уровнем моря 908 м.

В архиве по умолчанию представлена погода в Кыре за последнюю неделю. Архивные данные за месяц целиком и за предыдущие месяцы, начиная с января 2011 года, Вы можете получить, выбрав интересующий диапазон дат из раскрывающегося списка и нажав кнопку "Ввод!".


*Определитесь, кто Вы:
робот инопланетянин человек

Внимание! Время в таблицах - всемирное. Для получения местного времени необходимо прибавить поправку, которая равна 9 ч.

Смотрите также архив погоды в соседних городах и на ближайших метеорологических станциях:

Погода в Мангуте (Забайкальский край, Россия) (52 км)
Погода в Букукуне (Забайкальский край, Россия) (59 км)
Погода в Татаале (Монголия) (87 км)
Погода в Акше (Забайкальский край, Россия) (121 км)
Погода в Биндэре (Монголия) (142 км)
Погода в Дульдурге (Забайкальский край, Россия) (168 км)
Погода в Черемхово (Забайкальский край, Россия) (171 км)
Погода в Дашбалбаре (Монголия) (180 км)
Погода в Баян-Ову (Монголия) (200 км)
Погода в Улетах (Забайкальский край, Россия) (201 км)

Пояснения к столбцам:

Ветер - указаны скорость ветра в м/с - средняя за 10 мин, порывы в срок и между сроками (в фигурных скобках) и направление, откуда дует ветер: С - северный, СВ - северо-восточный, В - восточный, ЮВ - юго-восточный, Ю - южный, ЮЗ - юго-западный, З - западный, СЗ - северо-западный.
Видимость - горизонтальная дальность видимости в метрах или километрах. При видимости от 1 до 10 км при отсутствии осадков обычно наблюдается дымка, при ухудшении видимости до 1 км и менее - туман. В сухую погоду видимость может ухудшаться дымом, пылью или мглою.
Явления - указаны атмосферные явления, наблюдавшиеся в срок или в последний час перед сроком; фигурными скобками обозначены явления, наблюдавшиеся между сроками (за 1-3 часа до срока); квадратными скобками обозначены град или гололедные отложения с указанием их диаметра в мм.
Облачность - указаны через наклонную черту общая и нижняя облачность в баллах и высота нижней границы облаков в метрах; квадратными скобками обозначены формы облаков: Ci - перистые, Cs - перисто-слоистые, Cc - перисто-кучевые, Ac - высококучевые, As - высокослоистые, Sc - слоисто-кучевые, Ns - слоисто-дождевые, Cu - кучевые, Cb - кучево-дождевые. Подробнее классификацию облаков см. в Атласе облаков (PDF).
T - Температура воздуха - температура, измеренная на высоте 2 м над землей.
Td - Температура точки росы - температура, при понижении до которой содержащийся в воздухе водяной пар достигнет насыщения.
f - Относительная влажность воздуха - влажноcть воздуха, измеренная на высоте 2 м над землей.
Te - Эффективная температура - температура, которую ощущает одетый по сезону человек в тени. Характеристика душности погоды. При расчете учитывается влияние влажности воздуха и скорости ветра на теплоощущения человека.
Tes - Эффективная температура на солнце - температура, которую ощущает человек, с поправкой на солнечный нагрев. Характеристика знойности погоды. Зависит от высоты солнца над горизонтом, облачности и скорости ветра. Ночью, в пасмурную погоду, а также при ветре 12 м/с и более поправка равна нулю.
P - Атмосферное давление - приведенное к уровню моря атмосферное давление.
Po - Атмосферное давление - измеренное на уровне метеостанции атмосферное давление.
Tmin - Минимальная температура - минимум температуры воздуха на высоте 2 м над землей.
Tmax - Максимальная температура - максимум температуры воздуха на высоте 2 м над землей.
R - Количество осадков - Количество выпавших осадков за период времени, мм. При наведении курсора мыши на число - период времени, за который выпало указанное количество осадков.
R24 - Количество осадков - Количество выпавших осадков за 24 часа, мм.
S - Снежный покров - Высота снежного покрова, см. При наведении курсора мыши на число - состояние снежного покрова и степень покрытия местности в баллах.